CZ-6A DEB, 60681

Orbit data source: Space-Track

CZ-6A DEB, 60681 is space debris in LEO originally from a launch on Tue, 06 Aug 2024 UTC launched from the Taiyaun Space Center, China (TSC). Debris objects in space refer to the collection of defunct objects orbiting the Earth. Examples of debris include non-operational satellites, rocket bodies, and fragments generated from explosions, collisions, or faulty payload assembly.

Loading next visibility...
Identifier
60681, 2024-140CJ
Orbit
LEO
Country
Flag of CNCN / PRC
Related business
Manufacturer
SAST
Mission
Spacecraft
Bus & Motor
Unknown
Mass
Unknown
Launch date (UTC)
2024-08-06 (1 year ago)
Launch vehicle
Unknown
Launch site
Taiyaun Space Center, China (TSC)
Object type
Payload
Rocket body
Debris
Shape & HBR
Unknown shape, 0.1 m
Radar Cross Section
Medium (>0.1 m² and <1 m²)

Expand to show TLE details & history
Last TLE update: 7 hours ago

TLE from 7 hours ago
0 CZ-6A DEB
1 60681U 24140CJ  25349.88525017  .00000488  00000-0  33491-3 0  9994
2 60681  88.9977 297.9544 0183863 131.8506 229.8529 13.90029232 68578
Epoch: 2025-12-15T21:14Z
TLE epoch observation values (Epoch: 2025-12-15T21:14:45.614Z)
Latitude
0.00001°
Longitude
-105.51306°
Altitude
1,019.595 km
Speed
7.298 km/s
True Right ascension
19h 51m 49s
True Declination
0° 00' 00"
Sunlit
Object was in daylight at epoch
Visualization orbit readout
Latitude
Unknown
Longitude
Unknown
Altitude
Unknown
Speed
Unknown
Apparent Right ascension
Unknown
Apparent Declination
Unknown
Sunlit
N/A
Visualization observer readout
Local Sidereal Time
02:28:32
Azimuth
Unknown
Elevation
Unknown
Doppler factor
Unknown
Orbital elements
Apogee altitude
1,059.808 km
Perigee altitude
791.234 km
Semi-major axis
7,303.658 km
Eccentricity
0.01839
Inclination
88.9977°
RAAN
297.9544°
Arg. of periapsis
131.8506°
True anomaly
228.26612°
Mean anomaly
229.8529°
Eccentric anomaly
229.05716°
Mean motion
3.47722 °/min
Orbital period
103.53 mins
BSTAR
0.00033491
Loading maneuver chart data...
Computing Atmospheric mass density...
Loading historical data...
Loading historical data...
Loading historical data...
Loading historical data...
Loading historical data...
Loading historical data...
Loading historical data...

Documentation

Showing up to 5 results
|